| time (UTC) | temp C | wind direction | speed KPH | gust KPH | rain 1hr cm | rain 24hr cm | rain mn cm | humidity % | barometer mb |
| 20260504202333 | 23 | 164 | 4.8 | 9.7 | 0.00 | 0.00 | 0.00 | 23 | -103.9 |
| 20260504201814 | 23 | 304 | 3.2 | 6.4 | 0.00 | 0.00 | 0.00 | 26 | -103.9 |
| 20260504201317 | 23 | 162 | 3.2 | 6.4 | 0.00 | 0.00 | 0.00 | 24 | -103.8 |
| 20260504200817 | 23 | 148 | 1.6 | 8.0 | 0.00 | 0.00 | 0.00 | 26 | -103.8 |
| 20260504200338 | 23 | 140 | 4.8 | 8.0 | 0.00 | 0.00 | 0.00 | 25 | -103.8 |
| 20260504195814 | 23 | 293 | 3.2 | 6.4 | 0.00 | 0.00 | 0.00 | 27 | -103.8 |
| 20260504195314 | 23 | 122 | 1.6 | 6.4 | 0.00 | 0.00 | 0.00 | 26 | -103.8 |
| 20260504194815 | 23 | 148 | 3.2 | 6.4 | 0.00 | 0.00 | 0.00 | 26 | -103.8 |
| 20260504194318 | 23 | 305 | 1.6 | 4.8 | 0.00 | 0.00 | 0.00 | 27 | -103.8 |
| 20260504193819 | 23 | 136 | 1.6 | 4.8 | 0.00 | 0.00 | 0.00 | 29 | -103.8 |
| 20260504193321 | 23 | 44 | 0.0 | 6.4 | 0.00 | 0.00 | 0.00 | 28 | -103.8 |
| 20260504192822 | 22 | 155 | 1.6 | 6.4 | 0.00 | 0.00 | 0.00 | 30 | -103.8 |
| 20260504192322 | 22 | 289 | 0.0 | 6.4 | 0.00 | 0.00 | 0.00 | 30 | -103.8 |
| 20260504191818 | 22 | 158 | 3.2 | 6.4 | 0.00 | 0.00 | 0.00 | 25 | -103.8 |
| 20260504191319 | 22 | 153 | 1.6 | 6.4 | 0.00 | 0.00 | 0.00 | 26 | -103.8 |
| 20260504190818 | 23 | 146 | 4.8 | 6.4 | 0.00 | 0.00 | 0.00 | 24 | -103.8 |
| 20260504190321 | 22 | 200 | 1.6 | 3.2 | 0.00 | 0.00 | 0.00 | 29 | -103.8 |
| 20260504185820 | 22 | 6 | 0.0 | 4.8 | 0.00 | 0.00 | 0.00 | 29 | -103.7 |
| 20260504185322 | 22 | 151 | 1.6 | 6.4 | 0.00 | 0.00 | 0.00 | 28 | -103.7 |
| 20260504184819 | 22 | 123 | 1.6 | 6.4 | 0.00 | 0.00 | 0.00 | 30 | -103.7 |
| 20260504184341 | 22 | 136 | 0.0 | 16.1 | 0.00 | 0.00 | 0.00 | 32 | -103.7 |
| 20260504183820 | 22 | 207 | 1.6 | 4.8 | 0.00 | 0.00 | 0.00 | 28 | -103.7 |
| 20260504183341 | 22 | 290 | 1.6 | 6.4 | 0.00 | 0.00 | 0.00 | 30 | -103.7 |
| 20260504182821 | 22 | 165 | 3.2 | 6.4 | 0.00 | 0.00 | 0.00 | 28 | -103.7 |
| 20260504182322 | 21 | 148 | 3.2 | 6.4 | 0.00 | 0.00 | 0.00 | 28 | -103.7 |
| 20260504181838 | 21 | 311 | 1.6 | 6.4 | 0.00 | 0.00 | 0.00 | 29 | -103.7 |
| 20260504181317 | 21 | 321 | 1.6 | 6.4 | 0.00 | 0.00 | 0.00 | 30 | -103.7 |
| 20260504180818 | 21 | 155 | 1.6 | 4.8 | 0.00 | 0.00 | 0.00 | 31 | -103.7 |
| 20260504180321 | 21 | 326 | 3.2 | 4.8 | 0.00 | 0.00 | 0.00 | 31 | -103.7 |
| 20260504175840 | 21 | 125 | 1.6 | 6.4 | 0.00 | 0.00 | 0.00 | 31 | -103.7 |
| 20260504175322 | 21 | 297 | 0.0 | 6.4 | 0.00 | 0.00 | 0.00 | 30 | -103.7 |
| 20260504174823 | 21 | 116 | 1.6 | 6.4 | 0.00 | 0.00 | 0.00 | 33 | -103.7 |
| 20260504174323 | 21 | 294 | 0.0 | 3.2 | 0.00 | 0.00 | 0.00 | 32 | -103.7 |
| 20260504173823 | 21 | 288 | 1.6 | 6.4 | 0.00 | 0.00 | 0.00 | 32 | -103.7 |
| 20260504173323 | 21 | 167 | 1.6 | 6.4 | 0.00 | 0.00 | 0.00 | 33 | -103.7 |
| 20260504172823 | 21 | 126 | 0.0 | 1.6 | 0.00 | 0.00 | 0.00 | 36 | -103.7 |
| 20260504172344 | 20 | 304 | 0.0 | 4.8 | 0.00 | 0.00 | 0.00 | 38 | -103.7 |
| 20260504171824 | 20 | 145 | 0.0 | 4.8 | 0.00 | 0.00 | 0.00 | 34 | -103.7 |
| 20260504171325 | 20 | 112 | 1.6 | 8.0 | 0.00 | 0.00 | 0.00 | 35 | -103.7 |
| 20260504170825 | 20 | 158 | 3.2 | 4.8 | 0.00 | 0.00 | 0.00 | 34 | -103.7 |
| 20260504170327 | 19 | 323 | 1.6 | 4.8 | 0.00 | 0.00 | 0.00 | 38 | -103.7 |
| 20260504160335 | 17 | 345 | 0.0 | 3.2 | 0.00 | 0.00 | 0.00 | 41 | -103.6 |
| 20260504150838 | 15 | 335 | 1.6 | 4.8 | 0.00 | 0.00 | 0.00 | 48 | -103.6 |
| 20260504150346 | 15 | 5 | 0.0 | 3.2 | 0.00 | 0.00 | 0.00 | 47 | -103.6 |
| 20260504141314 | 14 | 303 | 1.6 | 3.2 | 0.00 | 0.00 | 0.00 | 43 | -103.6 |
| 20260504140822 | 15 | 302 | 1.6 | 3.2 | 0.00 | 0.00 | 0.00 | 41 | -103.6 |
| 20260504140324 | 15 | 53 | 1.6 | 3.2 | 0.00 | 0.00 | 0.00 | 41 | -103.6 |
| 20260504130822 | 10 | 124 | 0.0 | 1.6 | 0.00 | 0.00 | 0.00 | 52 | -103.6 |
| 20260504130325 | 10 | 124 | 0.0 | 0.0 | 0.00 | 0.00 | 0.00 | 51 | -103.6 |
| 20260504110334 | 10 | 335 | 0.0 | 4.8 | 0.00 | 0.00 | 0.00 | 55 | -103.6 |
| 20260504100313 | 11 | 153 | 6.4 | 9.7 | 0.00 | 0.00 | 0.00 | 34 | -103.7 |
| 20260504081824 | 14 | 97 | 8.0 | 14.5 | 0.00 | 0.00 | 0.00 | 27 | -103.7 |
| 20260504081332 | 14 | 141 | 8.0 | 12.9 | 0.00 | 0.00 | 0.00 | 27 | -103.7 |
| 20260504080814 | 14 | 149 | 6.4 | 17.7 | 0.00 | 0.00 | 0.00 | 26 | -103.7 |
| 20260504080345 | 13 | 133 | 8.0 | 17.7 | 0.00 | 0.00 | 0.00 | 28 | -103.7 |
| 20260504070333 | 13 | 73 | 6.4 | 14.5 | 0.00 | 0.00 | 0.00 | 29 | -103.7 |
| 20260504050334 | 15 | 131 | 6.4 | 11.3 | 0.00 | 0.00 | 0.00 | 24 | -103.7 |
| 20260504045815 | 15 | 143 | 4.8 | 9.7 | 0.00 | 0.00 | 0.00 | 24 | -103.7 |
| 20260504045318 | 15 | 79 | 6.4 | 9.7 | 0.00 | 0.00 | 0.00 | 24 | -103.7 |
| 20260504044847 | 15 | 156 | 3.2 | 9.7 | 0.00 | 0.00 | 0.00 | 25 | -103.7 |
| 20260504044336 | 15 | 131 | 4.8 | 9.7 | 0.00 | 0.00 | 0.00 | 25 | -103.7 |
| 20260504043838 | 15 | 148 | 6.4 | 9.7 | 0.00 | 0.00 | 0.00 | 24 | -103.7 |
| 20260504043326 | 16 | 135 | 6.4 | 9.7 | 0.00 | 0.00 | 0.00 | 24 | -103.7 |
| 20260504042827 | 16 | 92 | 6.4 | 9.7 | 0.00 | 0.00 | 0.00 | 24 | -103.6 |
| 20260504042339 | 16 | 160 | 4.8 | 9.7 | 0.00 | 0.00 | 0.00 | 24 | -103.6 |
| 20260504041820 | 16 | 135 | 4.8 | 11.3 | 0.00 | 0.00 | 0.00 | 24 | -103.7 |
| 20260504041329 | 16 | 148 | 4.8 | 11.3 | 0.00 | 0.00 | 0.00 | 24 | -103.7 |
| 20260504040830 | 16 | 140 | 4.8 | 11.3 | 0.00 | 0.00 | 0.00 | 24 | -103.7 |
| 20260504040341 | 16 | 128 | 4.8 | 9.7 | 0.00 | 0.00 | 0.00 | 24 | -103.6 |
| 20260504035821 | 16 | 136 | 4.8 | 9.7 | 0.00 | 0.00 | 0.00 | 24 | -103.6 |
| 20260504035332 | 16 | 129 | 4.8 | 8.0 | 0.00 | 0.00 | 0.00 | 24 | -103.6 |
| 20260504034833 | 16 | 153 | 4.8 | 9.7 | 0.00 | 0.00 | 0.00 | 24 | -103.6 |
| 20260504034316 | 16 | 150 | 4.8 | 8.0 | 0.00 | 0.00 | 0.00 | 24 | -103.7 |
| 20260504033824 | 16 | 154 | 4.8 | 8.0 | 0.00 | 0.00 | 0.00 | 24 | -103.6 |
| 20260504033327 | 16 | 131 | 4.8 | 8.0 | 0.00 | 0.00 | 0.00 | 23 | -103.7 |
| 20260504032835 | 16 | 130 | 4.8 | 8.0 | 0.00 | 0.00 | 0.00 | 23 | -103.7 |
| 20260504032319 | 16 | 143 | 4.8 | 6.4 | 0.00 | 0.00 | 0.00 | 22 | -103.6 |
| 20260504031819 | 17 | 134 | 3.2 | 6.4 | 0.00 | 0.00 | 0.00 | 23 | -103.6 |
| 20260504031328 | 17 | 157 | 3.2 | 6.4 | 0.00 | 0.00 | 0.00 | 22 | -103.7 |
| 20260504030830 | 17 | 122 | 3.2 | 4.8 | 0.00 | 0.00 | 0.00 | 23 | -103.7 |
| 20260504030314 | 17 | 143 | 3.2 | 4.8 | 0.00 | 0.00 | 0.00 | 23 | -103.7 |
| 20260504025820 | 17 | 136 | 1.6 | 6.4 | 0.00 | 0.00 | 0.00 | 23 | -103.7 |
| 20260504025323 | 17 | 143 | 3.2 | 6.4 | 0.00 | 0.00 | 0.00 | 23 | -103.7 |
| 20260504024830 | 17 | 150 | 3.2 | 4.8 | 0.00 | 0.00 | 0.00 | 24 | -103.7 |
| 20260504024317 | 17 | 135 | 1.6 | 4.8 | 0.00 | 0.00 | 0.00 | 24 | -103.6 |
| 20260504023818 | 17 | 150 | 3.2 | 4.8 | 0.00 | 0.00 | 0.00 | 24 | -103.6 |
| 20260504023344 | 18 | 138 | 1.6 | 3.2 | 0.00 | 0.00 | 0.00 | 23 | -103.7 |
| 20260504022824 | 18 | 141 | 1.6 | 3.2 | 0.00 | 0.00 | 0.00 | 23 | -103.7 |
| 20260504022334 | 18 | 131 | 1.6 | 3.2 | 0.00 | 0.00 | 0.00 | 23 | -103.6 |
| 20260504021814 | 18 | 47 | 1.6 | 1.6 | 0.00 | 0.00 | 0.00 | 21 | -103.6 |
| 20260504021324 | 18 | 4 | 0.0 | 0.0 | 0.00 | 0.00 | 0.00 | 20 | -103.6 |
| 20260504020826 | 18 | 4 | 0.0 | 0.0 | 0.00 | 0.00 | 0.00 | 18 | -103.6 |
| 20260504020313 | 19 | 4 | 0.0 | 0.0 | 0.00 | 0.00 | 0.00 | 17 | -103.6 |
| 20260504015816 | 19 | 4 | 0.0 | 0.0 | 0.00 | 0.00 | 0.00 | 18 | -103.6 |
| 20260504015319 | 20 | 4 | 0.0 | 0.0 | 0.00 | 0.00 | 0.00 | 17 | -103.6 |
| 20260504014811 | 20 | 4 | 0.0 | 0.0 | 0.00 | 0.00 | 0.00 | 17 | -103.6 |
| 20260504014314 | 20 | 4 | 0.0 | 0.0 | 0.00 | 0.00 | 0.00 | 15 | -103.6 |
| 20260504013815 | 20 | 4 | 0.0 | 0.0 | 0.00 | 0.00 | 0.00 | 15 | -103.6 |
| 20260504013341 | 20 | 4 | 0.0 | 0.0 | 0.00 | 0.00 | 0.00 | 16 | -103.6 |
| 20260504012829 | 20 | 337 | 0.0 | 1.6 | 0.00 | 0.00 | 0.00 | 17 | -103.6 |
| 20260504012352 | 20 | 337 | 0.0 | 1.6 | 0.00 | 0.00 | 0.00 | 15 | -103.6 |
| 20260504011820 | 20 | 337 | 0.0 | 1.6 | 0.00 | 0.00 | 0.00 | 16 | -103.6 |
| 20260504011322 | 20 | 337 | 0.0 | 1.6 | 0.00 | 0.00 | 0.00 | 17 | -103.6 |
| 20260504010830 | 20 | 338 | 0.0 | 0.0 | 0.00 | 0.00 | 0.00 | 16 | -103.6 |
| 20260504010313 | 21 | 338 | 0.0 | 1.6 | 0.00 | 0.00 | 0.00 | 16 | -103.6 |
| 20260504005815 | 21 | 338 | 0.0 | 3.2 | 0.00 | 0.00 | 0.00 | 15 | -103.6 |
| 20260504005345 | 21 | 307 | 0.0 | 3.2 | 0.00 | 0.00 | 0.00 | 15 | -103.6 |
| 20260504004833 | 21 | 306 | 0.0 | 4.8 | 0.00 | 0.00 | 0.00 | 16 | -103.6 |
| 20260504004315 | 21 | 338 | 1.6 | 6.4 | 0.00 | 0.00 | 0.00 | 17 | -103.6 |
| 20260504003823 | 21 | 349 | 3.2 | 6.4 | 0.00 | 0.00 | 0.00 | 15 | -103.6 |
| 20260504003326 | 21 | 276 | 1.6 | 4.8 | 0.00 | 0.00 | 0.00 | 17 | -103.6 |
| 20260504002834 | 21 | 302 | 1.6 | 6.4 | 0.00 | 0.00 | 0.00 | 16 | -103.5 |
| 20260504002313 | 21 | 347 | 1.6 | 6.4 | 0.00 | 0.00 | 0.00 | 17 | -103.5 |
| 20260504001821 | 21 | 296 | 1.6 | 4.8 | 0.00 | 0.00 | 0.00 | 16 | -103.5 |
| 20260504001323 | 21 | 348 | 3.2 | 6.4 | 0.00 | 0.00 | 0.00 | 14 | -103.5 |
| 20260504000823 | 21 | 316 | 1.6 | 6.4 | 0.00 | 0.00 | 0.00 | 16 | -103.5 |
| 20260504000314 | 22 | 330 | 3.2 | 6.4 | 0.00 | 0.00 | 0.00 | 16 | -103.5 |
| 20260503235813 | 22 | 342 | 4.8 | 6.4 | 0.00 | 0.00 | 0.00 | 15 | -103.5 |
| 20260503235342 | 22 | 335 | 0.0 | 3.2 | 0.00 | 0.00 | 0.00 | 15 | -103.5 |
| 20260503234316 | 22 | 312 | 1.6 | 6.4 | 0.00 | 0.00 | 0.00 | 18 | -103.5 |
| 20260503233823 | 22 | 356 | 3.2 | 4.8 | 0.00 | 0.00 | 0.00 | 15 | -103.5 |
| 20260503233333 | 22 | 288 | 1.6 | 6.4 | 0.00 | 0.00 | 0.00 | 18 | -103.5 |
| 20260503232813 | 22 | 321 | 3.2 | 8.0 | 0.00 | 0.00 | 0.00 | 15 | -103.5 |
| 20260503232314 | 22 | 309 | 3.2 | 8.0 | 0.00 | 0.00 | 0.00 | 15 | -103.5 |
| 20260503231842 | 22 | 314 | 1.6 | 6.4 | 0.00 | 0.00 | 0.00 | 15 | -103.5 |
| 20260503231324 | 21 | 281 | 1.6 | 6.4 | 0.00 | 0.00 | 0.00 | 15 | -103.5 |
| 20260503230831 | 21 | 333 | 1.6 | 3.2 | 0.00 | 0.00 | 0.00 | 16 | -103.5 |
| 20260503230314 | 21 | 340 | 0.0 | 3.2 | 0.00 | 0.00 | 0.00 | 16 | -103.5 |
| 20260503225821 | 21 | 174 | 0.0 | 3.2 | 0.00 | 0.00 | 0.00 | 16 | -103.5 |
| 20260503225352 | 21 | 335 | 1.6 | 3.2 | 0.00 | 0.00 | 0.00 | 17 | -103.5 |
| 20260503224812 | 21 | 307 | 0.0 | 3.2 | 0.00 | 0.00 | 0.00 | 15 | -103.4 |
| 20260503224314 | 21 | 310 | 1.6 | 4.8 | 0.00 | 0.00 | 0.00 | 16 | -103.4 |
| 20260503223823 | 22 | 304 | 1.6 | 4.8 | 0.00 | 0.00 | 0.00 | 16 | -103.4 |
| 20260503223325 | 22 | 153 | 1.6 | 4.8 | 0.00 | 0.00 | 0.00 | 17 | -103.4 |
| 20260503222827 | 22 | 153 | 0.0 | 4.8 | 0.00 | 0.00 | 0.00 | 19 | -103.4 |
| 20260503222320 | 22 | 161 | 0.0 | 6.4 | 0.00 | 0.00 | 0.00 | 16 | -103.4 |
| 20260503221816 | 22 | 168 | 4.8 | 6.4 | 0.00 | 0.00 | 0.00 | 15 | -103.4 |
| 20260503221319 | 22 | 187 | 3.2 | 6.4 | 0.00 | 0.00 | 0.00 | 15 | -103.4 |
| 20260503220827 | 22 | 130 | 0.0 | 3.2 | 0.00 | 0.00 | 0.00 | 16 | -103.4 |
| 20260503220329 | 22 | 345 | 1.6 | 4.8 | 0.00 | 0.00 | 0.00 | 17 | -103.4 |
| 20260503215837 | 22 | 166 | 0.0 | 4.8 | 0.00 | 0.00 | 0.00 | 17 | -103.4 |
| 20260503215321 | 22 | 146 | 1.6 | 6.4 | 0.00 | 0.00 | 0.00 | 18 | -103.3 |
| 20260503214821 | 22 | 323 | 3.2 | 8.0 | 0.00 | 0.00 | 0.00 | 15 | -103.4 |
| 20260503214351 | 22 | 329 | 3.2 | 8.0 | 0.00 | 0.00 | 0.00 | 16 | -103.3 |
| 20260503213838 | 22 | 296 | 3.2 | 4.8 | 0.00 | 0.00 | 0.00 | 17 | -103.3 |
| 20260503213319 | 23 | 295 | 1.6 | 3.2 | 0.00 | 0.00 | 0.00 | 19 | -103.3 |
| 20260503212821 | 22 | 204 | 0.0 | 6.4 | 0.00 | 0.00 | 0.00 | 21 | -103.3 |
| 20260503212323 | 22 | 319 | 3.2 | 9.7 | 0.00 | 0.00 | 0.00 | 16 | -103.3 |
| 20260503211831 | 22 | 337 | 0.0 | 6.4 | 0.00 | 0.00 | 0.00 | 17 | -103.3 |
| 20260503211335 | 23 | 338 | 1.6 | 6.4 | 0.00 | 0.00 | 0.00 | 16 | -103.3 |
| 20260503210843 | 22 | 355 | 0.0 | 6.4 | 0.00 | 0.00 | 0.00 | 17 | -103.3 |
| 20260503210352 | 22 | 271 | 1.6 | 6.4 | 0.00 | 0.00 | 0.00 | 18 | -103.3 |
| 20260503205812 | 23 | 319 | 1.6 | 4.8 | 0.00 | 0.00 | 0.00 | 18 | -103.3 |
| 20260503205322 | 23 | 133 | 3.2 | 6.4 | 0.00 | 0.00 | 0.00 | 14 | -103.3 |
| 20260503204822 | 23 | 330 | 1.6 | 6.4 | 0.00 | 0.00 | 0.00 | 18 | -103.3 |
| 20260503204326 | 23 | 335 | 1.6 | 6.4 | 0.00 | 0.00 | 0.00 | 21 | -103.3 |
| 20260503203834 | 23 | 157 | 1.6 | 6.4 | 0.00 | 0.00 | 0.00 | 18 | -103.3 |
| 20260503203314 | 23 | 171 | 3.2 | 8.0 | 0.00 | 0.00 | 0.00 | 18 | -103.3 |
| 20260503202821 | 23 | 147 | 3.2 | 8.0 | 0.00 | 0.00 | 0.00 | 18 | -103.3 |